LEMUR-2-AMANDA-SVANTE (48269 NORAD) Tracking and Keplerian Element Data

This shows tracking and keplerian element data for the satellite.

Feedback or suggestion? Click here.




ElementValue
Catalog48269
NameLEMUR-2-AMANDA-SVANTE
Epoch Orbit1359
Epoch Day210.73520985
Epoch Year2021
RAAN284.4305
Inclination97.7846
Eccentricity0.0004859
Argument of Perigee68.0565
Mean Anonmoly292.1167
Mean Motion14.85858303
Decay Rate9.29E-06
L11 48269U 21034B 21210.73520985 .00000929 00000-0 11273-3 0 9991
L22 48269 97.7846 284.4305 0004859 68.0565 292.1167 14.85858303 13595

Live tracking and technical data element details for LEMUR-2-AMANDA-SVANTE (NORAD 48269). LEMUR-2-AMANDA-SVANTE can be tracked NOW for your location showing map with azimuth and elevation plus other details from your city location.

Track the satellite on the map from your city or location and see movement details for azimuth, elevation, latitude, longitude, range, height, and movement on the map or in text.







IsCatalogInMostPopularTable: catalog: 48269, numindb: 38
Update: records affected: 1



GetName: 48269 LEMUR-2-AMANDA-SVANTE

Hit Count: updated at: Sat, 31 Jul 2021 16:13:02 GMT